TimeMST,TemperatureF,Dew PointF,Humidity,Sea Level PressureIn,VisibilityMPH,Wind Direction,Wind SpeedMPH,Gust SpeedMPH,PrecipitationIn,Events,Conditions,WindDirDegrees,DateUTC
12:53 AM,-5.1,-9.9,80,30.47,10.0,Calm,Calm,-,N/A,,Clear,0,2013-01-05 07:53:00
1:53 AM,-11.9,-16.1,82,30.52,10.0,NW,4.6,-,N/A,,Clear,310,2013-01-05 08:53:00
2:53 AM,-9.0,-11.0,91,30.48,10.0,Calm,Calm,-,N/A,,Clear,0,2013-01-05 09:53:00
3:53 AM,-9.9,-13.0,86,30.47,10.0,Calm,Calm,-,N/A,,Clear,0,2013-01-05 10:53:00
4:53 AM,-13.0,-16.1,86,30.53,10.0,ENE,3.5,-,N/A,,Clear,70,2013-01-05 11:53:00
5:53 AM,-11.2,-16.6,77,30.20,10.0,West,3.5,-,N/A,,Clear,280,2013-01-05 12:53:00
6:53 AM,-13.0,-17.0,82,30.62,10.0,Calm,Calm,-,N/A,,Clear,0,2013-01-05 13:53:00
7:53 AM,-11.9,-15.0,86,30.63,10.0,Calm,Calm,-,N/A,,Clear,0,2013-01-05 14:53:00
8:53 AM,-9.0,-13.0,83,30.66,10.0,WNW,3.5,-,N/A,,Clear,300,2013-01-05 15:53:00
9:53 AM,-2.9,-8.0,79,30.65,10.0,ESE,3.5,-,N/A,,Clear,110,2013-01-05 16:53:00
10:53 AM,3.0,-4.0,73,30.63,10.0,Calm,Calm,-,N/A,,Clear,0,2013-01-05 17:53:00
11:53 AM,10.0,-0.9,61,30.57,10.0,Calm,Calm,-,N/A,,Clear,0,2013-01-05 18:53:00
12:53 PM,14.0,-0.0,54,30.54,10.0,East,4.6,-,N/A,,Clear,100,2013-01-05 19:53:00
1:53 PM,17.1,3.0,54,30.55,10.0,East,4.6,-,N/A,,Clear,80,2013-01-05 20:53:00
2:53 PM,19.9,5.0,52,30.53,10.0,ENE,4.6,-,N/A,,Clear,70,2013-01-05 21:53:00
3:53 PM,19.9,5.0,52,30.55,10.0,Calm,Calm,-,N/A,,Clear,0,2013-01-05 22:53:00
4:53 PM,16.0,3.0,57,30.59,10.0,NNE,3.5,-,N/A,,Clear,30,2013-01-05 23:53:00
5:53 PM,-0.0,-7.1,72,30.69,10.0,Calm,Calm,-,N/A,,Clear,0,2013-01-06 00:53:00
6:53 PM,3.0,-2.9,76,30.68,10.0,Calm,Calm,-,N/A,,Clear,0,2013-01-06 01:53:00
7:53 PM,-6.0,-11.9,75,30.72,10.0,Calm,Calm,-,N/A,,Clear,0,2013-01-06 02:53:00
8:53 PM,-9.0,-13.0,83,30.71,10.0,Calm,Calm,-,N/A,,Clear,0,2013-01-06 03:53:00
9:53 PM,-6.0,-11.0,79,30.67,10.0,Calm,Calm,-,N/A,,Clear,0,2013-01-06 04:53:00
10:53 PM,-9.0,-13.0,83,30.64,10.0,NW,4.6,-,N/A,,Clear,320,2013-01-06 05:53:00
11:53 PM,-8.0,-11.9,83,30.59,10.0,NW,4.6,-,N/A,,Clear,320,2013-01-06 06:53:00